GW4542 Weather Reports


time (UTC)temp
C
wind
direction
speed
KPH
gust
KPH
rain 1hr
cm
rain 24hr
cm
rain mn
cm
humidity
%
barometer
mb
20260508111340 7 259 17.7 20.9 0.00 0.00 0.00 41 1019.5
20260508110837 7 295 17.7 22.5 0.00 0.00 0.00 42 1019.3
20260508110335 7 272 16.1 20.9 0.00 0.00 0.00 42 1019.5
20260508105834 7 272 16.1 16.1 0.00 0.00 0.00 42 1019.5
20260508105331 8 234 14.5 14.5 0.00 0.00 0.00 41 1019.7
20260508104828 7 276 14.5 16.1 0.00 0.00 0.00 40 1019.7
20260508104325 8 273 12.9 16.1 0.00 0.00 0.00 39 1019.6
20260508103822 8 294 12.9 14.5 0.00 0.00 0.00 40 1019.6
20260508103319 7 288 12.9 14.5 0.00 0.00 0.00 40 1019.5
20260508102817 7 247 8.0 9.7 0.00 0.00 0.00 41 1019.7
20260508102315 7 264 8.0 11.3 0.00 0.00 0.00 41 1019.6
20260508101812 7 241 4.8 4.8 0.00 0.00 0.00 41 1019.7
20260508101309 7 190 1.6 3.2 0.00 0.00 0.00 43 1019.7
20260508100806 7 176 0.0 1.6 0.00 0.00 0.00 43 1019.5
20260508100305 7 205 1.6 1.6 0.00 0.00 0.00 42 1019.6
20260508095800 7 205 3.2 4.8 0.00 0.00 0.00 40 1019.6
20260508095258 7 281 6.4 6.4 0.00 0.00 0.00 40 1019.3
20260508094755 7 252 6.4 6.4 0.00 0.00 0.00 39 1019.2
20260508094252 8 246 4.8 4.8 0.00 0.00 0.00 39 1019.2
20260508093749 8 262 9.7 12.9 0.00 0.00 0.00 39 1019.3
20260508093247 7 270 9.7 11.3 0.00 0.00 0.00 38 1019.3
20260508092743 7 189 1.6 1.6 0.00 0.00 0.00 40 1019.5
20260508092241 7 194 1.6 1.6 0.00 0.00 0.00 40 1019.3
20260508091739 8 270 6.4 9.7 0.00 0.00 0.00 38 1019.5
20260508091236 8 229 6.4 6.4 0.00 0.00 0.00 38 1019.5
20260508090734 8 245 4.8 6.4 0.00 0.00 0.00 38 1019.5
20260508090231 8 259 8.0 9.7 0.00 0.00 0.00 38 1019.3
20260508085727 8 215 6.4 9.7 0.00 0.00 0.00 37 1019.3
20260508085224 9 227 6.4 6.4 0.00 0.00 0.00 37 1019.5
20260508084720 9 241 8.0 9.7 0.00 0.00 0.00 37 1019.3
20260508084218 9 237 8.0 9.7 0.00 0.00 0.00 35 1019.6
20260508083715 9 255 11.3 14.5 0.00 0.00 0.00 35 1019.6
20260508083213 8 248 9.7 12.9 0.00 0.00 0.00 36 1019.7
20260508082707 9 261 11.3 14.5 0.00 0.00 0.00 36 1019.8
20260508082205 9 283 9.7 12.9 0.00 0.00 0.00 37 1019.8
20260508081702 10 258 12.9 14.5 0.00 0.00 0.00 36 1020.0
20260508081158 9 285 9.7 12.9 0.00 0.00 0.00 35 1019.6
20260508080656 9 246 8.0 9.7 0.00 0.00 0.00 35 1020.0
20260508080154 10 278 11.3 12.9 0.00 0.00 0.00 35 1019.7
20260508075650 10 265 11.3 12.9 0.00 0.00 0.00 35 1019.6
20260508075147 10 249 12.9 14.5 0.00 0.00 0.00 34 1019.7
20260508074645 9 267 9.7 12.9 0.00 0.00 0.00 35 1020.0
20260508074142 10 281 12.9 14.5 0.00 0.00 0.00 34 1020.0
20260508073639 10 257 11.3 14.5 0.00 0.00 0.00 35 1019.7
20260508073137 10 257 8.0 11.3 0.00 0.00 0.00 35 1020.0
20260508072632 10 245 9.7 11.3 0.00 0.00 0.00 35 1020.1
20260508072129 10 258 6.4 6.4 0.00 0.00 0.00 35 1019.8
20260508071627 10 256 8.0 9.7 0.00 0.00 0.00 35 1019.8
20260508071125 10 260 6.4 6.4 0.00 0.00 0.00 35 1020.0
20260508070622 10 224 8.0 11.3 0.00 0.00 0.00 35 1019.7
20260508070121 10 273 6.4 9.7 0.00 0.00 0.00 35 1019.8
20260508065618 10 259 9.7 12.9 0.00 0.00 0.00 34 1019.6
20260508065115 10 236 4.8 6.4 0.00 0.00 0.00 34 1019.7
20260508064613 10 221 4.8 6.4 0.00 0.00 0.00 34 1019.6
20260508064111 11 234 9.7 9.7 0.00 0.00 0.00 33 1019.5
20260508063608 10 266 9.7 12.9 0.00 0.00 0.00 33 1019.6
20260508063106 10 277 9.7 11.3 0.00 0.00 0.00 34 1019.5
20260508062603 10 225 6.4 6.4 0.00 0.00 0.00 34 1019.5
20260508062100 10 252 6.4 6.4 0.00 0.00 0.00 35 1019.3
20260508061557 10 266 6.4 6.4 0.00 0.00 0.00 34 1019.5
20260508061055 11 208 8.0 11.3 0.00 0.00 0.00 33 1019.2
20260508060551 11 249 8.0 9.7 0.00 0.00 0.00 34 1019.3
20260508060049 11 268 6.4 6.4 0.00 0.00 0.00 33 1019.2
20260508055544 11 240 6.4 6.4 0.00 0.00 0.00 34 1019.2
20260508055041 11 250 6.4 9.7 0.00 0.00 0.00 33 1019.5
20260508054537 11 267 6.4 6.4 0.00 0.00 0.00 32 1019.2
20260508054035 11 252 9.7 11.3 0.00 0.00 0.00 31 1019.5
20260508053531 11 253 6.4 9.7 0.00 0.00 0.00 32 1019.2
20260508053030 11 218 8.0 9.7 0.00 0.00 0.00 31 1019.3
20260508052527 10 269 4.8 4.8 0.00 0.00 0.00 33 1019.2
20260508052023 10 198 3.2 3.2 0.00 0.00 0.00 35 1019.3
20260508051520 10 211 3.2 4.8 0.00 0.00 0.00 33 1019.1
20260508051015 10 212 3.2 3.2 0.00 0.00 0.00 34 1019.2
20260508050512 11 232 4.8 4.8 0.00 0.00 0.00 32 1019.3
20260508050009 11 225 3.2 3.2 0.00 0.00 0.00 32 1019.1
20260508045505 11 228 6.4 6.4 0.00 0.00 0.00 31 1019.1
20260508045003 10 201 3.2 3.2 0.00 0.00 0.00 35 1019.2
20260508044500 10 247 4.8 6.4 0.00 0.00 0.00 34 1019.3
20260508043955 11 197 1.6 3.2 0.00 0.00 0.00 34 1019.3
20260508043453 11 222 3.2 4.8 0.00 0.00 0.00 32 1019.1
20260508042948 10 198 1.6 1.6 0.00 0.00 0.00 35 1019.5
20260508042447 10 195 1.6 3.2 0.00 0.00 0.00 35 1018.9
20260508041944 10 191 1.6 1.6 0.00 0.00 0.00 34 1019.2
20260508041440 11 188 1.6 1.6 0.00 0.00 0.00 33 1019.2
20260508040937 11 197 3.2 3.2 0.00 0.00 0.00 32 1018.9
20260508040434 12 195 1.6 1.6 0.00 0.00 0.00 31 1019.2
20260508035932 12 214 3.2 3.2 0.00 0.00 0.00 31 1019.3
20260508035428 11 210 3.2 3.2 0.00 0.00 0.00 32 1019.1
20260508034925 11 187 1.6 1.6 0.00 0.00 0.00 32 1018.9
20260508034423 12 187 0.0 0.0 0.00 0.00 0.00 31 1019.2
20260508033919 12 189 1.6 1.6 0.00 0.00 0.00 31 1018.9
20260508033417 14 190 1.6 1.6 0.00 0.00 0.00 28 1019.1
20260508032915 13 183 0.0 1.6 0.00 0.00 0.00 29 1019.0
20260508032412 14 215 4.8 4.8 0.00 0.00 0.00 28 1018.7
20260508031908 12 188 1.6 1.6 0.00 0.00 0.00 30 1018.9
20260508031406 12 169 0.0 0.0 0.00 0.00 0.00 29 1018.6
20260508030901 13 163 1.6 1.6 0.00 0.00 0.00 29 1018.6
20260508030359 13 166 0.0 0.0 0.00 0.00 0.00 29 1018.5
20260508025856 14 164 0.0 0.0 0.00 0.00 0.00 28 1018.6
20260508025352 15 163 0.0 1.6 0.00 0.00 0.00 28 1018.7
20260508024849 15 164 0.0 0.0 0.00 0.00 0.00 28 1018.4
20260508024346 15 170 0.0 0.0 0.00 0.00 0.00 28 1018.6
20260508023838 15 115 1.6 3.2 0.00 0.00 0.00 27 1018.5
20260508023335 16 190 1.6 1.6 0.00 0.00 0.00 26 1018.2
20260508022831 16 165 0.0 1.6 0.00 0.00 0.00 26 1018.5
20260508022327 17 168 1.6 1.6 0.00 0.00 0.00 24 1018.4
20260508021824 17 182 1.6 1.6 0.00 0.00 0.00 24 1018.7
20260508021320 18 198 1.6 1.6 0.00 0.00 0.00 24 1018.5
20260508020816 18 208 6.4 6.4 0.00 0.00 0.00 23 1018.4
20260508020314 18 262 4.8 6.4 0.00 0.00 0.00 23 1018.7
20260508015810 18 253 6.4 9.7 0.00 0.00 0.00 23 1018.5
20260508015308 18 232 6.4 6.4 0.00 0.00 0.00 23 1018.4
20260508014804 18 266 11.3 16.1 0.00 0.00 0.00 23 1018.2
20260508014302 18 270 11.3 12.9 0.00 0.00 0.00 23 1018.5
20260508013757 18 208 3.2 3.2 0.00 0.00 0.00 24 1018.5
20260508013253 19 182 0.0 0.0 0.00 0.00 0.00 22 1018.2
20260508012752 20 344 12.9 17.7 0.00 0.00 0.00 23 1018.2
20260508012248 20 230 4.8 4.8 0.00 0.00 0.00 23 1018.1
20260508011746 20 184 1.6 3.2 0.00 0.00 0.00 23 1018.5
20260508011243 20 356 8.0 11.3 0.00 0.00 0.00 22 1018.1
20260508010740 20 282 4.8 4.8 0.00 0.00 0.00 22 1018.0
20260508010238 20 244 4.8 4.8 0.00 0.00 0.00 24 1018.4
20260508005735 20 198 0.0 1.6 0.00 0.00 0.00 23 1018.2
20260508005232 20 77 3.2 3.2 0.00 0.00 0.00 23 1018.4
20260508004727 21 24 6.4 6.4 0.00 0.00 0.00 23 1018.1
20260508004224 21 356 6.4 6.4 0.00 0.00 0.00 23 1018.5
20260508003720 20 134 1.6 3.2 0.00 0.00 0.00 23 1018.1
20260508003218 20 44 4.8 4.8 0.00 0.00 0.00 24 1018.1
20260508002714 20 96 3.2 3.2 0.00 0.00 0.00 23 1018.2
20260508002213 21 157 1.6 1.6 0.00 0.00 0.00 23 1018.4
20260508001708 21 84 3.2 3.2 0.00 0.00 0.00 23 1018.4
20260508001203 20 112 4.8 4.8 0.00 0.00 0.00 23 1018.1
20260508000700 20 68 4.8 6.4 0.00 0.00 0.00 24 1018.2
20260508000157 20 66 1.6 3.2 0.00 0.00 0.00 23 1018.4
20260507235654 21 101 4.8 4.8 0.00 0.00 0.00 22 1018.2
20260507235151 20 138 3.2 4.8 0.00 0.00 0.00 23 1018.1
20260507234648 20 77 6.4 9.7 0.00 0.00 0.00 23 1018.2
20260507234144 21 50 6.4 9.7 0.00 0.00 0.00 24 1018.1
20260507233641 21 92 4.8 4.8 0.00 0.00 0.00 22 1018.1
20260507233140 21 85 6.4 6.4 0.00 0.00 0.00 22 1018.4
20260507232636 22 65 8.0 14.5 0.00 0.00 0.00 22 1018.2
20260507232133 21 79 9.7 11.3 0.00 0.00 0.00 22 1018.1
20260507231629 22 32 6.4 6.4 0.00 0.00 0.00 22 1018.2
20260507231126 21 135 3.2 4.8 0.00 0.00 0.00 22 1018.1
20260507230622 20 191 1.6 1.6 0.00 0.00 0.00 24 1018.6
20260507230120 21 37 9.7 12.9 0.00 0.00 0.00 24 1018.0
20260507225614 21 117 3.2 3.2 0.00 0.00 0.00 23 1018.1
20260507225111 21 156 1.6 3.2 0.00 0.00 0.00 22 1018.4
20260507224607 22 34 11.3 14.5 0.00 0.00 0.00 23 1018.1
20260507224104 22 10 11.3 16.1 0.00 0.00 0.00 23 1018.1
20260507223600 21 87 6.4 9.7 0.00 0.00 0.00 22 1018.2
20260507223057 21 97 6.4 9.7 0.00 0.00 0.00 23 1018.4
20260507222554 21 83 4.8 6.4 0.00 0.00 0.00 22 1018.1
20260507222050 21 25 8.0 9.7 0.00 0.00 0.00 23 1018.4
20260507221547 21 50 9.7 12.9 0.00 0.00 0.00 24 1018.7
20260507221044 22 11 4.8 6.4 0.00 0.00 0.00 23 1018.6
20260507220541 22 33 11.3 14.5 0.00 0.00 0.00 23 1018.6
20260507220038 22 46 8.0 11.3 0.00 0.00 0.00 22 1018.7
20260507215534 21 13 12.9 14.5 0.00 0.00 0.00 24 1018.7
20260507215032 21 69 12.9 20.9 0.00 0.00 0.00 23 1018.7
20260507214530 20 44 9.7 12.9 0.00 0.00 0.00 24 1018.9
20260507214025 20 66 3.2 4.8 0.00 0.00 0.00 25 1019.2
20260507213521 20 149 6.4 9.7 0.00 0.00 0.00 23 1019.1
20260507213019 20 106 4.8 6.4 0.00 0.00 0.00 24 1019.1
20260507212515 21 111 4.8 11.3 0.00 0.00 0.00 22 1019.2
20260507212011 21 53 6.4 9.7 0.00 0.00 0.00 22 1019.3
20260507211508 20 52 3.2 6.4 0.00 0.00 0.00 26 1019.5
20260507211004 20 131 3.2 3.2 0.00 0.00 0.00 24 1019.5
20260507210501 19 106 6.4 9.7 0.00 0.00 0.00 24 1019.7
20260507205958 21 30 8.0 12.9 0.00 0.00 0.00 24 1020.0
20260507205455 21 26 8.0 9.7 0.00 0.00 0.00 24 1019.7
20260507204951 21 28 11.3 16.1 0.00 0.00 0.00 24 1019.6
20260507204448 20 124 9.7 11.3 0.00 0.00 0.00 26 1020.0
20260507203946 20 14 8.0 9.7 0.00 0.00 0.00 24 1019.7
20260507203443 20 23 8.0 11.3 0.00 0.00 0.00 24 1020.1
20260507202939 21 23 17.7 22.5 0.00 0.00 0.00 24 1020.1
20260507202436 20 64 11.3 14.5 0.00 0.00 0.00 23 1020.3
20260507201932 20 49 11.3 14.5 0.00 0.00 0.00 23 1020.2
20260507201427 20 31 14.5 16.1 0.00 0.00 0.00 25 1020.1
20260507200924 19 72 9.7 11.3 0.00 0.00 0.00 26 1020.3
20260507200420 19 32 12.9 17.7 0.00 0.00 0.00 24 1020.1
20260507195916 19 48 12.9 17.7 0.00 0.00 0.00 25 1020.2
20260507195414 20 44 12.9 17.7 0.00 0.00 0.00 24 1020.3
20260507194910 20 94 14.5 16.1 0.00 0.00 0.00 24 1020.4
20260507194407 20 89 6.4 9.7 0.00 0.00 0.00 24 1020.2
20260507193903 20 56 12.9 17.7 0.00 0.00 0.00 24 1020.3
20260507193401 20 81 6.4 6.4 0.00 0.00 0.00 24 1020.6
20260507192857 20 47 12.9 16.1 0.00 0.00 0.00 24 1020.7
20260507192353 19 41 14.5 16.1 0.00 0.00 0.00 24 1020.7
20260507191850 19 76 9.7 16.1 0.00 0.00 0.00 24 1020.6
20260507191346 19 73 8.0 11.3 0.00 0.00 0.00 24 1020.8
20260507190843 18 111 9.7 11.3 0.00 0.00 0.00 25 1020.8
20260507190341 19 53 11.3 12.9 0.00 0.00 0.00 25 1020.9
20260507185840 18 58 9.7 12.9 0.00 0.00 0.00 25 1020.9
20260507185336 19 87 6.4 11.3 0.00 0.00 0.00 24 1021.1
20260507184833 18 60 11.3 12.9 0.00 0.00 0.00 25 1021.2
20260507184331 18 51 6.4 6.4 0.00 0.00 0.00 26 1021.1
20260507183828 18 66 3.2 4.8 0.00 0.00 0.00 25 1021.5
20260507183325 18 77 11.3 14.5 0.00 0.00 0.00 25 1021.3
20260507182823 18 87 9.7 14.5 0.00 0.00 0.00 25 1021.3
20260507182318 18 71 11.3 12.9 0.00 0.00 0.00 25 1021.5
20260507181814 18 94 8.0 11.3 0.00 0.00 0.00 25 1021.7
20260507181310 18 70 6.4 9.7 0.00 0.00 0.00 25 1021.4
20260507180807 18 75 6.4 11.3 0.00 0.00 0.00 25 1021.7
20260507180304 18 90 8.0 11.3 0.00 0.00 0.00 26 1021.5
20260507175800 18 112 3.2 3.2 0.00 0.00 0.00 25 1021.4
20260507175257 18 63 9.7 12.9 0.00 0.00 0.00 25 1021.7
20260507174754 18 31 12.9 14.5 0.00 0.00 0.00 24 1021.7
20260507174252 18 96 4.8 4.8 0.00 0.00 0.00 25 1021.5
20260507173750 18 97 4.8 9.7 0.00 0.00 0.00 24 1021.5
20260507173246 18 163 3.2 3.2 0.00 0.00 0.00 25 1021.7
20260507172742 17 75 3.2 3.2 0.00 0.00 0.00 26 1021.9
20260507172240 17 179 1.6 1.6 0.00 0.00 0.00 26 1021.8
20260507171735 18 151 1.6 1.6 0.00 0.00 0.00 25 1021.9
20260507171232 17 143 1.6 1.6 0.00 0.00 0.00 26 1022.2
20260507170729 16 244 9.7 12.9 0.00 0.00 0.00 27 1021.9
20260507170226 16 4 4.8 4.8 0.00 0.00 0.00 27 1022.0
20260507165721 15 191 1.6 1.6 0.00 0.00 0.00 28 1022.0
20260507165218 15 247 6.4 11.3 0.00 0.00 0.00 29 1021.9
20260507164714 15 270 11.3 12.9 0.00 0.00 0.00 29 1022.0
20260507164211 15 259 9.7 11.3 0.00 0.00 0.00 29 1022.2
20260507163708 15 264 6.4 6.4 0.00 0.00 0.00 30 1022.2
20260507163206 15 248 8.0 9.7 0.00 0.00 0.00 30 1022.3
20260507162702 15 266 12.9 17.7 0.00 0.00 0.00 30 1022.2
20260507162158 14 266 12.9 14.5 0.00 0.00 0.00 30 1022.4
20260507161654 14 273 14.5 16.1 0.00 0.00 0.00 30 1022.3
20260507161151 13 278 16.1 16.1 0.00 0.00 0.00 31 1022.4
20260507160647 13 286 9.7 12.9 0.00 0.00 0.00 32 1022.5
20260507160144 13 260 6.4 6.4 0.00 0.00 0.00 32 1022.8
20260507155640 12 327 8.0 9.7 0.00 0.00 0.00 32 1022.8
20260507155137 12 273 8.0 12.9 0.00 0.00 0.00 32 1022.9
20260507154633 11 280 12.9 16.1 0.00 0.00 0.00 32 1022.9
20260507154131 11 282 11.3 16.1 0.00 0.00 0.00 33 1022.8
20260507153627 11 274 12.9 16.1 0.00 0.00 0.00 33 1023.0
20260507153123 11 261 14.5 16.1 0.00 0.00 0.00 33 1023.3
20260507152619 11 277 14.5 17.7 0.00 0.00 0.00 33 1022.8
20260507152110 10 290 14.5 16.1 0.00 0.00 0.00 33 1023.0
20260507151606 10 264 16.1 17.7 0.00 0.00 0.00 34 1022.8
20260507151103 9 266 12.9 14.5 0.00 0.00 0.00 34 1022.9
20260507150555 8 266 14.5 17.7 0.00 0.00 0.00 35 1022.9
20260507150051 8 279 17.7 24.1 0.00 0.00 0.00 35 1023.1
20260507145545 7 277 16.1 20.9 0.00 0.00 0.00 36 1023.3
20260507145044 7 283 17.7 20.9 0.00 0.00 0.00 36 1023.0
20260507144540 7 291 19.3 24.1 0.00 0.00 0.00 37 1023.1
20260507144037 6 284 19.3 24.1 0.00 0.00 0.00 37 1023.1
20260507143534 6 274 16.1 20.9 0.00 0.00 0.00 38 1023.3
20260507143032 6 268 16.1 17.7 0.00 0.00 0.00 38 1023.4
20260507142527 6 273 16.1 20.9 0.00 0.00 0.00 38 1023.1
20260507142024 6 247 19.3 25.7 0.00 0.00 0.00 38 1023.0
20260507141520 5 233 11.3 14.5 0.00 0.00 0.00 39 1023.1
20260507141017 5 277 14.5 16.1 0.00 0.00 0.00 39 1023.0
20260507140514 5 264 17.7 20.9 0.00 0.00 0.00 40 1022.9
20260507140012 4 273 19.3 24.1 0.00 0.00 0.00 40 1023.0
20260507135508 4 251 16.1 20.9 0.00 0.00 0.00 41 1022.9
20260507135006 3 232 17.7 17.7 0.00 0.00 0.00 41 1023.1
20260507134502 3 279 14.5 16.1 0.00 0.00 0.00 41 1023.1
20260507133958 3 274 16.1 17.7 0.00 0.00 0.00 41 1022.9
20260507133454 3 292 19.3 22.5 0.00 0.00 0.00 42 1023.3
20260507132952 3 261 14.5 20.9 0.00 0.00 0.00 42 1023.0
20260507132448 2 266 16.1 22.5 0.00 0.00 0.00 43 1023.0
20260507131945 2 266 22.5 25.7 0.00 0.00 0.00 43 1023.0
20260507131442 2 272 24.1 25.7 0.00 0.00 0.00 45 1023.0
20260507130939 1 272 17.7 24.1 0.00 0.00 0.00 46 1023.0
20260507130436 1 289 16.1 17.7 0.00 0.00 0.00 46 1022.8
20260507125935 1 265 19.3 24.1 0.00 0.00 0.00 45 1023.0
20260507125432 1 277 22.5 27.4 0.00 0.00 0.00 45 1022.8
20260507124929 1 281 17.7 20.9 0.00 0.00 0.00 45 1022.8
20260507124425 1 287 19.3 24.1 0.00 0.00 0.00 46 1022.8
20260507123924 1 266 19.3 24.1 0.00 0.00 0.00 45 1023.0
20260507123421 1 258 17.7 22.5 0.00 0.00 0.00 45 1022.8
20260507122917 1 279 14.5 17.7 0.00 0.00 0.00 45 1022.5
20260507122412 2 284 16.1 20.9 0.00 0.00 0.00 44 1022.7
20260507121909 2 237 16.1 17.7 0.00 0.00 0.00 43 1022.4
20260507121404 2 269 8.0 9.7 0.00 0.00 0.00 43 1022.9
20260507120901 2 233 14.5 14.5 0.00 0.00 0.00 43 1022.7
20260507120357 2 276 11.3 14.5 0.00 0.00 0.00 42 1022.7
20260507115854 2 262 9.7 12.9 0.00 0.00 0.00 43 1022.8
20260507115350 2 276 11.3 14.5 0.00 0.00 0.00 43 1022.8
20260507114846 2 256 16.1 17.7 0.00 0.00 0.00 43 1022.5
20260507114343 2 248 8.0 11.3 0.00 0.00 0.00 42 1022.9
20260507113840 2 316 12.9 12.9 0.00 0.00 0.00 41 1022.8
20260507113337 2 273 11.3 14.5 0.00 0.00 0.00 41 1022.7
20260507112835 2 275 17.7 22.5 0.00 0.00 0.00 41 1023.0
20260507112331 2 291 16.1 20.9 0.00 0.00 0.00 41 1023.0
20260507111829 2 278 16.1 16.1 0.00 0.00 0.00 40 1022.7